This is the latest recevied weather packets stored in our database for station/object K5BOU. If no packets are shown the sender has not sent any weather packets the latest 1 day(s).
| Time | Temp. | Humidity | Pressure | Rain* | Wind** | Luminosity | Snow |
|---|---|---|---|---|---|---|---|
| 1778074382 | 24.44° C | 99% | 1007.3 hPa | 0 mm | - | 94 W/m² | - |
| 1778073169 | 24.44° C | 99% | 1007.5 hPa | 0 mm | - | 67 W/m² | - |
| 1778071052 | 23.89° C | 99% | 1007.5 hPa | 0 mm | - | 18 W/m² | - |
| 1778068934 | 23.89° C | 99% | 1007.4 hPa | 0 mm | - | 12 W/m² | - |
| 1778068632 | 23.89° C | 99% | 1007.2 hPa | 0 mm | - | 10 W/m² | - |
| 1778067423 | 23.89° C | 99% | 1006.9 hPa | 0 mm | - | 0 W/m² | - |
| 1778067120 | 23.89° C | 99% | 1006.8 hPa | 0 mm | - | 0 W/m² | - |
| 1778066816 | 23.89° C | 99% | 1006.8 hPa | 0 mm | - | 0 W/m² | - |
| 1778066514 | 23.89° C | 99% | 1007 hPa | 0 mm | - | 0 W/m² | - |
| 1778066211 | 23.89° C | 99% | 1006.5 hPa | 0 mm | - | 0 W/m² | - |
| 1778064092 | 23.89° C | 99% | 1006.5 hPa | 0 mm | - | 0 W/m² | - |
| 1778063789 | 23.89° C | 99% | 1006.3 hPa | 0 mm | - | 0 W/m² | - |
| 1778063486 | 23.89° C | 99% | 1006.5 hPa | 0 mm | - | 0 W/m² | - |
| 1778062881 | 23.89° C | 99% | 1006.5 hPa | 0 mm | - | 0 W/m² | - |
| 1778062578 | 23.89° C | 99% | 1006.3 hPa | 0 mm | - | 0 W/m² | - |
| 1778060461 | 23.89° C | 99% | 1006.3 hPa | 0 mm | - | 0 W/m² | - |
| 1778060159 | 23.89° C | 99% | 1006.3 hPa | 0 mm | - | 0 W/m² | - |
| 1778059856 | 23.89° C | 99% | 1006.3 hPa | 0 mm | - | 0 W/m² | - |
| 1778059554 | 23.89° C | 99% | 1006.2 hPa | 0 mm | - | 0 W/m² | - |
| 1778058949 | 23.89° C | 99% | 1006.3 hPa | 0 mm | - | 0 W/m² | - |
| 1778058646 | 23.89° C | 99% | 1006.3 hPa | 0 mm | - | 0 W/m² | - |
| 1778057433 | 24.44° C | 99% | 1006.5 hPa | 0 mm | - | 0 W/m² | - |
| 1778056826 | 24.44° C | 99% | 1006.5 hPa | 0 mm | - | 0 W/m² | - |
| 1778056221 | 24.44° C | 99% | 1006.6 hPa | 0 mm | - | 0 W/m² | - |
| 1778055613 | 24.44° C | 99% | 1006.5 hPa | 0 mm | - | 0 W/m² | - |
* Rain latest hour (hover to see other rain measurements)
** Current wind speed in m/s (hover to see current wind gust speed)